Time,TemperatureF,DewpointF,PressureIn,WindDirection,WindDirectionDegrees,WindSpeedMPH,WindSpeedGustMPH,Humidity,HourlyPrecipIn,Conditions,Clouds,dailyrainin,SoftwareType,DateUTC
2013-06-23 00:01:00,62.2,12.5,29.80,SSW,209,0.0,0.0,14,0.00,,---,0.00,VWS V14.01,2013-06-23 07:01:00,
2013-06-23 00:06:00,62.2,12.5,29.80,SSW,209,0.0,0.0,14,0.00,,---,0.00,VWS V14.01,2013-06-23 07:06:00,
2013-06-23 00:11:00,62.2,12.5,29.80,SSW,209,0.0,0.0,14,0.00,,---,0.00,VWS V14.01,2013-06-23 07:11:00,
2013-06-23 00:16:00,62.2,12.5,29.80,SW,217,0.0,0.0,14,0.00,,---,0.00,VWS V14.01,2013-06-23 07:16:00,
2013-06-23 00:21:00,62.2,12.5,29.80,SW,217,0.0,0.0,14,0.00,,---,0.00,VWS V14.01,2013-06-23 07:21:00,
2013-06-23 00:26:00,62.2,12.5,29.80,SW,217,0.0,0.0,14,0.00,,---,0.00,VWS V14.01,2013-06-23 07:26:00,
2013-06-23 00:31:00,62.4,12.6,29.80,SW,217,0.0,0.0,14,0.00,,---,0.00,VWS V14.01,2013-06-23 07:31:00,
2013-06-23 00:36:00,62.6,11.1,29.80,SW,217,0.0,0.0,13,0.00,,---,0.00,VWS V14.01,2013-06-23 07:36:00,
2013-06-23 00:41:00,62.1,12.3,29.80,SSW,205,0.0,0.0,14,0.00,,---,0.00,VWS V14.01,2013-06-23 07:41:00,
2013-06-23 00:46:00,62.1,12.3,29.80,SSW,202,2.7,3.1,14,0.00,,---,0.00,VWS V14.01,2013-06-23 07:46:00,
2013-06-23 00:51:00,61.7,15.1,29.80,SSW,205,3.1,3.1,16,0.00,,---,0.00,VWS V14.01,2013-06-23 07:51:00,
2013-06-23 00:56:00,61.5,14.9,29.80,SSW,205,3.1,3.1,16,0.00,,---,0.00,VWS V14.01,2013-06-23 07:56:00,
2013-06-23 01:01:00,61.2,20.9,29.80,SSW,205,2.7,2.7,21,0.00,,---,0.00,VWS V14.01,2013-06-23 08:01:00,
2013-06-23 01:06:00,61.2,20.9,29.80,SSW,206,3.6,3.6,21,0.00,,---,0.00,VWS V14.01,2013-06-23 08:06:00,
2013-06-23 01:11:00,61.0,24.0,29.80,SSW,206,3.6,3.6,24,0.00,,---,0.00,VWS V14.01,2013-06-23 08:11:00,
2013-06-23 01:16:00,61.0,18.5,29.80,SSW,206,0.0,0.0,19,0.00,,---,0.00,VWS V14.01,2013-06-23 08:16:00,
2013-06-23 01:21:00,61.2,18.6,29.80,SSW,207,0.0,0.0,19,0.00,,---,0.00,VWS V14.01,2013-06-23 08:21:00,
2013-06-23 01:26:00,61.2,18.6,29.80,SSW,207,0.0,0.0,19,0.00,,---,0.00,VWS V14.01,2013-06-23 08:26:00,
2013-06-23 01:31:00,61.2,20.9,29.80,SSW,192,0.0,0.0,21,0.00,,---,0.00,VWS V14.01,2013-06-23 08:31:00,
2013-06-23 01:36:00,61.0,20.8,29.80,SSW,213,0.0,0.0,21,0.00,,---,0.00,VWS V14.01,2013-06-23 08:36:00,
2013-06-23 01:41:00,60.8,20.6,29.80,SSW,213,0.0,0.0,21,0.00,,---,0.00,VWS V14.01,2013-06-23 08:41:00,
2013-06-23 01:46:00,60.6,21.6,29.80,SW,223,3.6,3.6,22,0.00,,---,0.00,VWS V14.01,2013-06-23 08:46:00,
2013-06-23 01:51:00,60.8,20.6,29.80,SSW,210,2.2,2.2,21,0.00,,---,0.00,VWS V14.01,2013-06-23 08:51:00,
2013-06-23 01:56:00,60.8,18.3,29.80,SSW,210,2.2,2.2,19,0.00,,---,0.00,VWS V14.01,2013-06-23 08:56:00,
2013-06-23 02:01:00,61.0,18.5,29.80,SW,222,3.1,3.1,19,0.00,,---,0.00,VWS V14.01,2013-06-23 09:01:00,
2013-06-23 02:06:00,61.0,18.5,29.80,SW,222,3.1,3.1,19,0.00,,---,0.00,VWS V14.01,2013-06-23 09:06:00,
2013-06-23 02:11:00,61.0,18.5,29.80,SW,227,2.2,2.2,19,0.00,,---,0.00,VWS V14.01,2013-06-23 09:11:00,
2013-06-23 02:16:00,61.2,18.6,29.80,SSW,207,2.2,2.2,19,0.00,,---,0.00,VWS V14.01,2013-06-23 09:16:00,
2013-06-23 02:21:00,61.3,18.8,29.80,SW,219,4.0,4.0,19,0.00,,---,0.00,VWS V14.01,2013-06-23 09:21:00,
2013-06-23 02:26:00,61.2,18.6,29.80,SW,218,3.1,3.1,19,0.00,,---,0.00,VWS V14.01,2013-06-23 09:26:00,
2013-06-23 02:31:00,61.2,18.6,29.80,SSW,206,2.7,2.7,19,0.00,,---,0.00,VWS V14.01,2013-06-23 09:31:00,
2013-06-23 02:36:00,61.0,18.5,29.80,SSW,206,2.7,2.7,19,0.00,,---,0.00,VWS V14.01,2013-06-23 09:36:00,
2013-06-23 02:41:00,60.8,20.6,29.80,SW,236,4.0,4.9,21,0.00,,---,0.00,VWS V14.01,2013-06-23 09:41:00,
2013-06-23 02:46:00,60.8,20.6,29.80,SW,236,4.0,4.0,21,0.00,,---,0.00,VWS V14.01,2013-06-23 09:46:00,
2013-06-23 02:51:00,60.8,23.8,29.80,SW,230,2.7,2.7,24,0.00,,---,0.00,VWS V14.01,2013-06-23 09:51:00,
2013-06-23 02:56:00,60.8,20.6,29.80,WSW,244,5.8,5.8,21,0.00,,---,0.00,VWS V14.01,2013-06-23 09:56:00,
2013-06-23 03:01:00,60.6,24.6,29.80,WSW,242,4.9,4.9,25,0.00,,---,0.00,VWS V14.01,2013-06-23 10:01:00,
2013-06-23 03:06:00,60.4,24.5,29.80,WSW,244,4.9,4.9,25,0.00,,---,0.00,VWS V14.01,2013-06-23 10:06:00,
2013-06-23 03:11:00,60.4,24.5,29.80,WSW,244,4.9,4.9,25,0.00,,---,0.00,VWS V14.01,2013-06-23 10:11:00,
2013-06-23 03:16:00,59.9,25.9,29.80,WSW,246,5.4,5.4,27,0.00,,---,0.00,VWS V14.01,2013-06-23 10:16:00,
2013-06-23 03:21:00,59.9,25.0,29.80,WSW,238,4.9,4.9,26,0.00,,---,0.00,VWS V14.01,2013-06-23 10:21:00,
2013-06-23 03:26:00,59.9,25.9,29.80,SW,235,4.9,4.9,27,0.00,,---,0.00,VWS V14.01,2013-06-23 10:26:00,
2013-06-23 03:31:00,59.9,25.9,29.80,WSW,238,6.3,6.3,27,0.00,,---,0.00,VWS V14.01,2013-06-23 10:31:00,
2013-06-23 03:36:00,59.7,27.4,29.80,SW,233,4.5,4.5,29,0.00,,---,0.00,VWS V14.01,2013-06-23 10:36:00,
2013-06-23 03:41:00,59.4,28.7,29.80,SW,219,5.4,5.4,31,0.00,,---,0.00,VWS V14.01,2013-06-23 10:41:00,
2013-06-23 03:46:00,58.8,31.2,29.80,SW,219,5.4,5.4,35,0.00,,---,0.00,VWS V14.01,2013-06-23 10:46:00,
2013-06-23 03:51:00,58.1,32.0,29.80,SW,225,3.1,3.1,37,0.00,,---,0.00,VWS V14.01,2013-06-23 10:51:00,
2013-06-23 03:56:00,58.1,32.0,29.80,SW,231,4.9,4.9,37,0.00,,---,0.00,VWS V14.01,2013-06-23 10:56:00,
2013-06-23 04:01:00,57.9,33.1,29.80,SW,221,2.7,2.7,39,0.00,,---,0.00,VWS V14.01,2013-06-23 11:01:00,
2013-06-23 04:06:00,57.9,33.1,29.80,SW,224,2.7,2.7,39,0.00,,---,0.00,VWS V14.01,2013-06-23 11:06:00,
2013-06-23 04:11:00,57.4,33.3,29.80,SW,224,2.7,2.7,40,0.00,,---,0.00,VWS V14.01,2013-06-23 11:11:00,
2013-06-23 04:16:00,57.4,33.9,29.80,SW,224,2.7,2.7,41,0.00,,---,0.00,VWS V14.01,2013-06-23 11:16:00,
2013-06-23 04:21:00,57.6,34.1,29.80,West,280,2.7,3.1,41,0.00,,---,0.00,VWS V14.01,2013-06-23 11:21:00,
2013-06-23 04:26:00,57.6,34.1,29.80,West,280,3.6,3.6,41,0.00,,---,0.00,VWS V14.01,2013-06-23 11:26:00,
2013-06-23 04:31:00,57.6,35.2,29.80,West,280,0.0,0.0,43,0.00,,---,0.00,VWS V14.01,2013-06-23 11:31:00,
2013-06-23 04:36:00,57.6,35.8,29.80,WSW,252,0.0,0.0,44,0.00,,---,0.00,VWS V14.01,2013-06-23 11:36:00,
2013-06-23 04:41:00,57.6,35.8,29.80,WSW,252,0.0,0.0,44,0.00,,---,0.00,VWS V14.01,2013-06-23 11:41:00,
2013-06-23 04:46:00,56.8,35.7,29.80,WSW,252,0.0,0.0,45,0.00,,---,0.00,VWS V14.01,2013-06-23 11:46:00,
2013-06-23 04:51:00,57.0,35.9,29.80,SSW,201,0.0,0.0,45,0.00,,---,0.00,VWS V14.01,2013-06-23 11:51:00,
2013-06-23 04:56:00,56.8,36.3,29.80,SSW,201,0.0,0.0,46,0.00,,---,0.00,VWS V14.01,2013-06-23 11:56:00,
2013-06-23 05:01:00,56.8,37.4,29.80,SSW,201,0.0,0.0,48,0.00,,---,0.00,VWS V14.01,2013-06-23 12:01:00,
2013-06-23 05:06:00,56.8,37.4,29.80,SSW,201,0.0,0.0,48,0.00,,---,0.00,VWS V14.01,2013-06-23 12:06:00,
2013-06-23 05:11:00,56.8,39.4,29.80,SSW,201,0.0,0.0,52,0.00,,---,0.00,VWS V14.01,2013-06-23 12:11:00,
2013-06-23 05:16:00,57.0,40.1,29.80,SSW,201,0.0,0.0,53,0.00,,---,0.00,VWS V14.01,2013-06-23 12:16:00,
2013-06-23 05:21:00,56.7,40.7,29.80,SSW,201,0.0,0.0,55,0.00,,---,0.00,VWS V14.01,2013-06-23 12:21:00,
2013-06-23 05:26:00,56.7,40.7,29.80,SSW,197,3.6,3.6,55,0.00,,---,0.00,VWS V14.01,2013-06-23 12:26:00,
2013-06-23 05:31:00,56.5,42.3,29.80,SSW,197,3.1,3.1,59,0.00,,---,0.00,VWS V14.01,2013-06-23 12:31:00,
2013-06-23 05:36:00,56.5,43.2,29.80,SSW,197,3.1,3.1,61,0.00,,---,0.00,VWS V14.01,2013-06-23 12:36:00,
2013-06-23 05:41:00,56.7,43.4,29.80,SSW,205,0.0,0.0,61,0.00,,---,0.00,VWS V14.01,2013-06-23 12:41:00,
2013-06-23 05:46:00,56.7,44.2,29.80,SSW,205,0.0,0.0,63,0.00,,---,0.00,VWS V14.01,2013-06-23 12:46:00,
2013-06-23 05:51:00,56.5,43.2,29.80,SSW,200,0.0,0.0,61,0.00,,---,0.00,VWS V14.01,2013-06-23 12:51:00,
2013-06-23 05:56:00,56.5,43.6,29.80,SSW,200,0.0,0.0,62,0.00,,---,0.00,VWS V14.01,2013-06-23 12:56:00,
2013-06-23 06:01:00,56.7,44.2,29.80,South,181,0.0,0.0,63,0.00,,---,0.00,VWS V14.01,2013-06-23 13:01:00,
2013-06-23 06:06:00,56.8,44.8,29.80,South,181,0.0,0.0,64,0.00,,---,0.00,VWS V14.01,2013-06-23 13:06:00,
2013-06-23 06:11:00,56.8,45.2,29.80,South,181,0.0,0.0,65,0.00,,---,0.00,VWS V14.01,2013-06-23 13:11:00,
2013-06-23 06:16:00,57.0,45.8,29.80,South,181,0.0,0.0,66,0.00,,---,0.00,VWS V14.01,2013-06-23 13:16:00,
2013-06-23 06:21:00,57.0,46.6,29.80,South,181,0.0,0.0,68,0.00,,---,0.00,VWS V14.01,2013-06-23 13:21:00,
2013-06-23 06:26:00,57.0,47.0,29.80,South,181,0.0,0.0,69,0.00,,---,0.00,VWS V14.01,2013-06-23 13:26:00,
2013-06-23 06:31:00,57.2,47.1,29.80,South,181,0.0,0.0,69,0.00,,---,0.00,VWS V14.01,2013-06-23 13:31:00,
2013-06-23 06:36:00,57.0,47.3,29.80,South,181,0.0,0.0,70,0.00,,---,0.00,VWS V14.01,2013-06-23 13:36:00,
2013-06-23 06:41:00,57.0,47.3,29.80,ESE,111,0.0,0.0,70,0.00,,---,0.00,VWS V14.01,2013-06-23 13:41:00,
2013-06-23 06:46:00,57.2,47.1,29.80,East,97,3.6,3.6,69,0.00,,---,0.00,VWS V14.01,2013-06-23 13:46:00,
2013-06-23 06:51:00,57.6,47.1,29.80,ESE,102,0.0,0.0,68,0.00,,---,0.00,VWS V14.01,2013-06-23 13:51:00,
2013-06-23 06:56:00,57.2,46.4,29.80,SE,144,0.0,0.0,67,0.00,,---,0.00,VWS V14.01,2013-06-23 13:56:00,
2013-06-23 07:01:00,57.2,46.4,29.80,SE,144,0.0,0.0,67,0.00,,---,0.00,VWS V14.01,2013-06-23 14:01:00,
2013-06-23 07:06:00,57.2,46.4,29.80,SE,144,0.0,0.0,67,0.00,,---,0.00,VWS V14.01,2013-06-23 14:06:00,
2013-06-23 07:11:00,58.1,47.2,29.80,SE,144,0.0,0.0,67,0.00,,---,0.00,VWS V14.01,2013-06-23 14:11:00,
2013-06-23 07:16:00,58.1,47.2,29.80,North,357,0.0,0.0,67,0.00,,---,0.00,VWS V14.01,2013-06-23 14:16:00,
2013-06-23 07:21:00,58.6,48.1,29.80,North,357,0.0,0.0,68,0.00,,---,0.00,VWS V14.01,2013-06-23 14:21:00,
2013-06-23 07:26:00,59.0,48.1,29.80,North,357,0.0,0.0,67,0.00,,---,0.00,VWS V14.01,2013-06-23 14:26:00,
2013-06-23 07:32:00,59.0,48.1,29.80,SE,136,0.0,0.0,67,0.00,,---,0.00,VWS V14.01,2013-06-23 14:32:00,
2013-06-23 07:37:00,59.2,47.8,29.80,SE,136,0.0,0.0,66,0.00,,---,0.00,VWS V14.01,2013-06-23 14:37:00,
2013-06-23 07:42:00,59.2,47.8,29.80,North,7,0.0,0.0,66,0.00,,---,0.00,VWS V14.01,2013-06-23 14:42:00,
2013-06-23 07:47:00,60.4,49.4,29.80,NW,315,0.0,0.0,67,0.00,,---,0.00,VWS V14.01,2013-06-23 14:47:00,
2013-06-23 07:52:00,60.6,49.6,29.80,WSW,257,0.0,0.0,67,0.00,,---,0.00,VWS V14.01,2013-06-23 14:52:00,
2013-06-23 07:57:00,59.4,46.3,29.80,West,275,0.0,0.0,62,0.04,,---,0.04,VWS V14.01,2013-06-23 14:57:00,
2013-06-23 08:02:00,58.6,45.2,29.80,ESE,118,0.0,0.0,61,0.04,,---,0.04,VWS V14.01,2013-06-23 15:02:00,
2013-06-23 08:07:00,58.6,45.2,29.80,ESE,118,0.0,0.0,61,0.04,,---,0.04,VWS V14.01,2013-06-23 15:07:00,
2013-06-23 08:12:00,59.2,47.8,29.80,NNE,21,0.0,0.0,66,0.04,,---,0.04,VWS V14.01,2013-06-23 15:12:00,
2013-06-23 08:17:00,59.2,47.8,29.80,NNW,328,0.0,0.0,66,0.04,,---,0.04,VWS V14.01,2013-06-23 15:17:00,
2013-06-23 08:22:00,59.2,47.8,29.80,NNW,328,0.0,0.0,66,0.04,,---,0.04,VWS V14.01,2013-06-23 15:22:00,
2013-06-23 08:27:00,60.4,49.4,29.80,NNW,328,0.0,0.0,67,0.04,,---,0.04,VWS V14.01,2013-06-23 15:27:00,
2013-06-23 08:32:00,60.6,49.6,29.80,NNW,346,0.0,0.0,67,0.04,,---,0.04,VWS V14.01,2013-06-23 15:32:00,
2013-06-23 08:37:00,60.3,48.0,29.80,NNW,346,0.0,0.0,64,0.04,,---,0.04,VWS V14.01,2013-06-23 15:37:00,
2013-06-23 08:42:00,60.3,48.0,29.80,West,277,0.0,0.0,64,0.04,,---,0.04,VWS V14.01,2013-06-23 15:42:00,
2013-06-23 08:47:00,60.4,47.4,29.80,West,272,0.0,0.0,62,0.04,,---,0.04,VWS V14.01,2013-06-23 15:47:00,
2013-06-23 08:52:00,59.9,46.0,29.80,West,266,0.0,0.0,60,0.04,,---,0.04,VWS V14.01,2013-06-23 15:52:00,
2013-06-23 08:57:00,59.4,44.1,29.80,West,271,0.0,0.0,57,0.00,,---,0.04,VWS V14.01,2013-06-23 15:57:00,
2013-06-23 09:02:00,60.1,47.0,29.80,West,271,0.0,0.0,62,0.00,,---,0.04,VWS V14.01,2013-06-23 16:02:00,
2013-06-23 09:07:00,59.9,46.9,29.80,SW,222,0.0,0.0,62,0.00,,---,0.04,VWS V14.01,2013-06-23 16:07:00,
2013-06-23 09:12:00,59.9,46.9,29.80,SW,222,0.0,0.0,62,0.00,,---,0.04,VWS V14.01,2013-06-23 16:12:00,
2013-06-23 09:17:00,59.9,46.9,29.80,SW,223,3.1,3.1,62,0.00,,---,0.04,VWS V14.01,2013-06-23 16:17:00,
2013-06-23 09:22:00,59.5,42.4,29.80,SW,223,3.1,3.1,53,0.00,,---,0.04,VWS V14.01,2013-06-23 16:22:00,
2013-06-23 09:27:00,59.7,44.5,29.80,SSW,195,3.1,3.1,57,0.00,,---,0.04,VWS V14.01,2013-06-23 16:27:00,
2013-06-23 09:32:00,59.7,43.5,29.80,SSW,208,4.0,4.0,55,0.00,,---,0.04,VWS V14.01,2013-06-23 16:32:00,
2013-06-23 09:37:00,59.7,43.5,29.80,SSW,194,3.1,3.1,55,0.00,,---,0.04,VWS V14.01,2013-06-23 16:37:00,
2013-06-23 09:42:00,59.7,43.5,29.80,SSW,201,3.6,3.6,55,0.00,,---,0.04,VWS V14.01,2013-06-23 16:42:00,
2013-06-23 09:47:00,60.6,41.4,29.80,SSW,192,3.6,3.6,49,0.00,,---,0.04,VWS V14.01,2013-06-23 16:47:00,
2013-06-23 09:52:00,61.2,37.9,29.80,SSW,203,4.0,4.0,42,0.00,,---,0.04,VWS V14.01,2013-06-23 16:52:00,
2013-06-23 09:57:00,61.7,38.4,29.80,WSW,240,5.4,5.4,42,0.00,,---,0.04,VWS V14.01,2013-06-23 16:57:00,
2013-06-23 10:02:00,61.7,38.4,29.80,SSW,210,3.1,3.1,42,0.00,,---,0.04,VWS V14.01,2013-06-23 17:02:00,
2013-06-23 10:07:00,61.7,38.4,29.80,SW,217,0.0,0.0,42,0.00,,---,0.04,VWS V14.01,2013-06-23 17:07:00,
2013-06-23 10:12:00,63.3,36.6,29.80,WSW,247,3.6,3.6,37,0.00,,---,0.04,VWS V14.01,2013-06-23 17:12:00,
2013-06-23 10:17:00,64.6,36.3,29.80,WSW,246,3.6,3.6,35,0.00,,---,0.04,VWS V14.01,2013-06-23 17:17:00,
2013-06-23 10:22:00,65.8,36.7,29.80,WSW,250,4.0,4.0,34,0.00,,---,0.04,VWS V14.01,2013-06-23 17:22:00,
2013-06-23 10:27:00,65.8,36.7,29.80,SSW,211,0.0,0.0,34,0.00,,---,0.04,VWS V14.01,2013-06-23 17:27:00,
2013-06-23 10:32:00,65.8,36.7,29.80,WSW,249,3.1,4.0,34,0.00,,---,0.04,VWS V14.01,2013-06-23 17:32:00,
2013-06-23 10:37:00,68.7,34.3,29.80,WNW,284,3.6,3.6,28,0.00,,---,0.04,VWS V14.01,2013-06-23 17:37:00,
2013-06-23 10:42:00,68.7,34.3,29.80,WSW,237,4.9,4.9,28,0.00,,---,0.04,VWS V14.01,2013-06-23 17:42:00,
2013-06-23 10:47:00,70.2,30.7,29.80,SSW,211,2.7,2.7,23,0.00,,---,0.04,VWS V14.01,2013-06-23 17:47:00,
2013-06-23 10:52:00,71.6,30.8,29.80,SW,232,3.6,3.6,22,0.00,,---,0.04,VWS V14.01,2013-06-23 17:52:00,
2013-06-23 10:57:00,71.6,30.8,29.80,SW,228,2.2,2.2,22,0.00,,---,0.04,VWS V14.01,2013-06-23 17:57:00,
2013-06-23 11:02:00,69.6,30.2,29.80,SW,225,4.0,4.0,23,0.00,,---,0.04,VWS V14.01,2013-06-23 18:02:00,
2013-06-23 11:07:00,69.6,30.2,29.80,SW,221,3.6,3.6,23,0.00,,---,0.04,VWS V14.01,2013-06-23 18:07:00,
2013-06-23 11:12:00,69.8,30.4,29.80,West,261,4.0,4.0,23,0.00,,---,0.04,VWS V14.01,2013-06-23 18:12:00,
2013-06-23 11:17:00,69.8,30.4,29.80,WSW,240,4.9,4.9,23,0.00,,---,0.04,VWS V14.01,2013-06-23 18:17:00,
2013-06-23 11:22:00,68.7,30.5,29.80,WSW,237,3.6,3.6,24,0.00,,---,0.04,VWS V14.01,2013-06-23 18:22:00,
2013-06-23 11:27:00,68.7,30.5,29.80,West,271,3.6,3.6,24,0.00,,---,0.04,VWS V14.01,2013-06-23 18:27:00,
2013-06-23 11:32:00,73.6,31.3,29.80,WNW,302,0.0,0.0,21,0.00,,---,0.04,VWS V14.01,2013-06-23 18:32:00,
2013-06-23 11:37:00,76.3,25.3,29.80,West,261,6.7,6.7,15,0.00,,---,0.04,VWS V14.01,2013-06-23 18:37:00,
2013-06-23 11:42:00,77.2,26.0,29.80,WNW,300,0.0,0.0,15,0.00,,---,0.04,VWS V14.01,2013-06-23 18:42:00,
2013-06-23 11:47:00,77.2,26.0,29.80,WNW,284,5.4,5.4,15,0.00,,---,0.04,VWS V14.01,2013-06-23 18:47:00,
2013-06-23 11:52:00,77.2,26.0,29.80,West,279,2.7,2.7,15,0.00,,---,0.04,VWS V14.01,2013-06-23 18:52:00,
2013-06-23 11:57:00,76.5,22.0,29.80,West,279,2.7,2.7,13,0.00,,---,0.04,VWS V14.01,2013-06-23 18:57:00,
2013-06-23 12:02:00,74.7,20.6,29.80,West,277,4.9,4.9,13,0.00,,---,0.04,VWS V14.01,2013-06-23 19:02:00,
2013-06-23 12:07:00,74.1,20.2,29.80,North,353,0.0,0.0,13,0.00,,---,0.04,VWS V14.01,2013-06-23 19:07:00,
2013-06-23 12:12:00,74.1,20.2,29.80,West,260,0.0,0.0,13,0.00,,---,0.04,VWS V14.01,2013-06-23 19:12:00,
2013-06-23 12:17:00,73.8,24.8,29.80,WNW,295,0.0,0.0,16,0.00,,---,0.04,VWS V14.01,2013-06-23 19:17:00,
2013-06-23 12:23:00,73.9,25.0,29.80,West,277,0.0,0.0,16,0.00,,---,0.04,VWS V14.01,2013-06-23 19:23:00,
2013-06-23 12:28:00,73.9,25.0,29.80,NW,315,0.0,0.0,16,0.00,,---,0.04,VWS V14.01,2013-06-23 19:28:00,
2013-06-23 12:33:00,73.4,24.5,29.80,North,357,0.0,0.0,16,0.00,,---,0.04,VWS V14.01,2013-06-23 19:33:00,
2013-06-23 12:38:00,73.4,24.5,29.80,NNW,327,3.6,3.6,16,0.00,,---,0.04,VWS V14.01,2013-06-23 19:38:00,
2013-06-23 12:43:00,73.4,24.5,29.80,NNW,345,2.7,2.7,16,0.00,,---,0.04,VWS V14.01,2013-06-23 19:43:00,
2013-06-23 12:48:00,70.7,31.1,29.80,NNW,327,0.0,0.0,23,0.00,,---,0.04,VWS V14.01,2013-06-23 19:48:00,
2013-06-23 12:52:00,70.9,31.3,29.80,NW,314,3.1,3.1,23,0.00,,---,0.04,VWS V14.01,2013-06-23 19:52:00,
2013-06-23 12:57:00,71.4,31.7,29.80,NW,322,0.0,2.7,23,0.00,,---,0.04,VWS V14.01,2013-06-23 19:57:00,
2013-06-23 13:02:00,71.4,31.7,29.80,NW,319,0.0,0.0,23,0.00,,---,0.04,VWS V14.01,2013-06-23 20:02:00,
2013-06-23 13:08:00,71.4,30.6,29.80,NNW,331,0.0,0.0,22,0.00,,---,0.04,VWS V14.01,2013-06-23 20:08:00,
2013-06-23 13:13:00,72.0,29.9,29.80,North,0,0.0,0.0,21,0.00,,---,0.04,VWS V14.01,2013-06-23 20:13:00,
2013-06-23 13:18:00,72.0,29.9,29.80,North,2,0.0,0.0,21,0.00,,---,0.04,VWS V14.01,2013-06-23 20:18:00,
2013-06-23 13:23:00,74.5,25.4,29.80,WNW,283,0.0,0.0,16,0.00,,---,0.04,VWS V14.01,2013-06-23 20:23:00,
2013-06-23 13:28:00,74.5,25.4,29.80,NW,315,2.2,2.2,16,0.00,,---,0.04,VWS V14.01,2013-06-23 20:28:00,
2013-06-23 13:32:00,74.5,25.4,29.80,NW,318,3.6,3.6,16,0.00,,---,0.04,VWS V14.01,2013-06-23 20:32:00,
2013-06-23 13:37:00,73.4,24.5,29.80,WSW,250,0.0,0.0,16,0.00,,---,0.04,VWS V14.01,2013-06-23 20:37:00,
2013-06-23 13:42:00,73.2,24.4,29.80,WNW,285,0.0,0.0,16,0.00,,---,0.04,VWS V14.01,2013-06-23 20:42:00,
2013-06-23 13:47:00,73.2,28.5,29.80,WNW,285,0.0,0.0,19,0.00,,---,0.04,VWS V14.01,2013-06-23 20:47:00,
2013-06-23 13:52:00,73.2,24.4,29.80,SSW,208,0.0,0.0,16,0.00,,---,0.04,VWS V14.01,2013-06-23 20:52:00,
2013-06-23 13:57:00,73.2,24.4,29.80,SW,232,0.0,0.0,16,0.00,,---,0.04,VWS V14.01,2013-06-23 20:57:00,
2013-06-23 14:02:00,73.2,24.4,29.80,SW,230,0.0,0.0,16,0.00,,---,0.04,VWS V14.01,2013-06-23 21:02:00,
2013-06-23 14:07:00,71.1,30.3,29.80,SW,230,0.0,0.0,22,0.00,,---,0.04,VWS V14.01,2013-06-23 21:07:00,
2013-06-23 14:12:00,73.0,28.4,29.80,West,275,0.0,0.0,19,0.00,,---,0.04,VWS V14.01,2013-06-23 21:12:00,
2013-06-23 14:17:00,74.1,27.9,29.80,North,2,0.0,0.0,18,0.00,,---,0.04,VWS V14.01,2013-06-23 21:17:00,
2013-06-23 14:22:00,74.1,27.9,29.80,NE,39,0.0,0.0,18,0.00,,---,0.04,VWS V14.01,2013-06-23 21:22:00,
2013-06-23 14:27:00,74.1,27.9,29.80,ESE,113,0.0,0.0,18,0.00,,---,0.04,VWS V14.01,2013-06-23 21:27:00,
2013-06-23 14:33:00,79.3,18.1,29.80,SSW,197,0.0,0.0,10,0.00,,---,0.04,VWS V14.01,2013-06-23 21:33:00,
2013-06-23 14:38:00,79.3,18.1,29.80,NW,319,2.7,2.7,10,0.00,,---,0.00,VWS V14.01,2013-06-23 21:38:00,
2013-06-23 14:43:00,79.7,18.4,29.80,NNE,16,0.0,2.2,10,0.00,,---,0.04,VWS V14.01,2013-06-23 21:43:00,
2013-06-23 14:48:00,79.7,18.4,29.80,North,353,0.0,0.0,10,0.00,,---,0.04,VWS V14.01,2013-06-23 21:48:00,
2013-06-23 14:53:00,79.7,18.4,29.80,NNE,12,0.0,0.0,10,0.00,,---,0.04,VWS V14.01,2013-06-23 21:53:00,
2013-06-23 14:58:00,79.2,18.0,29.80,North,353,0.0,0.0,10,0.00,,---,0.04,VWS V14.01,2013-06-23 21:58:00,
2013-06-23 15:03:00,79.2,18.0,29.80,SW,214,0.0,0.0,10,0.00,,---,0.04,VWS V14.01,2013-06-23 22:03:00,
2013-06-23 15:08:00,76.5,15.9,29.80,SW,214,0.0,0.0,10,0.00,,---,0.04,VWS V14.01,2013-06-23 22:08:00,
2013-06-23 15:13:00,75.9,15.5,29.80,ESE,103,0.0,0.0,10,0.00,,---,0.04,VWS V14.01,2013-06-23 22:13:00,
2013-06-23 15:18:00,75.9,15.5,29.80,SW,230,0.0,0.0,10,0.00,,---,0.04,VWS V14.01,2013-06-23 22:18:00,
2013-06-23 15:23:00,76.3,15.8,29.80,West,280,5.8,5.8,10,0.00,,---,0.04,VWS V14.01,2013-06-23 22:23:00,
2013-06-23 15:28:00,76.3,15.8,29.80,WSW,255,0.0,5.8,10,0.00,,---,0.04,VWS V14.01,2013-06-23 22:28:00,
2013-06-23 15:33:00,74.5,16.6,29.80,SW,218,2.7,3.6,11,0.00,,---,0.04,VWS V14.01,2013-06-23 22:33:00,
2013-06-23 15:38:00,72.9,15.3,29.80,WNW,295,0.0,0.0,11,0.00,,---,0.04,VWS V14.01,2013-06-23 22:38:00,
2013-06-23 15:43:00,76.1,15.6,29.80,West,267,3.6,3.6,10,0.00,,---,0.04,VWS V14.01,2013-06-23 22:43:00,
2013-06-23 15:48:00,76.3,15.8,29.80,WSW,242,4.0,4.0,10,0.00,,---,0.04,VWS V14.01,2013-06-23 22:48:00,
2013-06-23 15:53:00,76.3,15.8,29.80,South,172,0.0,0.0,10,0.00,,---,0.04,VWS V14.01,2013-06-23 22:53:00,
2013-06-23 15:58:00,76.8,16.2,29.80,South,188,0.0,0.0,10,0.00,,---,0.04,VWS V14.01,2013-06-23 22:58:00,
2013-06-23 16:03:00,77.9,17.0,29.80,WSW,258,4.0,4.0,10,0.00,,---,0.04,VWS V14.01,2013-06-23 23:03:00,
2013-06-23 16:08:00,77.9,17.0,29.80,West,275,0.0,0.0,10,0.00,,---,0.04,VWS V14.01,2013-06-23 23:08:00,
2013-06-23 16:13:00,73.6,15.9,29.80,SW,221,0.0,0.0,11,0.00,,---,0.04,VWS V14.01,2013-06-23 23:13:00,
2013-06-23 16:18:00,73.6,15.9,29.80,SW,221,0.0,0.0,11,0.00,,---,0.04,VWS V14.01,2013-06-23 23:18:00,
2013-06-23 16:23:00,73.8,16.0,29.80,SW,217,0.0,0.0,11,0.00,,---,0.04,VWS V14.01,2013-06-23 23:23:00,
2013-06-23 16:28:00,73.0,15.5,29.80,SSE,152,0.0,0.0,11,0.00,,---,0.04,VWS V14.01,2013-06-23 23:28:00,
2013-06-23 16:33:00,73.0,15.5,29.80,East,99,0.0,0.0,11,0.00,,---,0.04,VWS V14.01,2013-06-23 23:33:00,
2013-06-23 16:38:00,75.9,15.5,29.80,North,357,0.0,0.0,10,0.00,,---,0.04,VWS V14.01,2013-06-23 23:38:00,
2013-06-23 16:43:00,77.2,16.5,29.80,NNE,12,0.0,0.0,10,0.00,,---,0.04,VWS V14.01,2013-06-23 23:43:00,
2013-06-23 16:48:00,79.2,18.0,29.80,NNE,12,0.0,0.0,10,0.00,,---,0.04,VWS V14.01,2013-06-23 23:48:00,
2013-06-23 16:53:00,79.0,17.8,29.80,WSW,251,0.0,0.0,10,0.00,,---,0.04,VWS V14.01,2013-06-23 23:53:00,
2013-06-23 16:58:00,77.5,16.7,29.80,WSW,255,0.0,0.0,10,0.00,,---,0.04,VWS V14.01,2013-06-23 23:58:00,
2013-06-23 17:03:00,77.5,16.7,29.80,North,0,0.0,0.0,10,0.00,,---,0.04,VWS V14.01,2013-06-24 00:03:00,
2013-06-23 17:08:00,78.6,17.5,29.80,NNE,25,3.1,3.1,10,0.00,,---,0.04,VWS V14.01,2013-06-24 00:08:00,
2013-06-23 17:13:00,78.6,17.5,29.80,NNW,346,0.0,0.0,10,0.00,,---,0.04,VWS V14.01,2013-06-24 00:13:00,
2013-06-23 17:18:00,76.1,15.6,29.80,ENE,59,2.2,2.2,10,0.00,,---,0.04,VWS V14.01,2013-06-24 00:18:00,
2013-06-23 17:23:00,76.1,15.6,29.80,SE,126,0.0,0.0,10,0.00,,---,0.04,VWS V14.01,2013-06-24 00:23:00,
2013-06-23 17:28:00,71.8,27.3,29.80,NE,43,3.6,3.6,19,0.00,,---,0.04,VWS V14.01,2013-06-24 00:28:00,
2013-06-23 17:33:00,71.4,33.8,29.80,North,9,8.1,8.1,25,0.00,,---,0.04,VWS V14.01,2013-06-24 00:33:00,
2013-06-23 17:38:00,71.4,33.8,29.80,North,10,8.3,8.3,25,0.00,,---,0.04,VWS V14.01,2013-06-24 00:38:00,
2013-06-23 17:43:00,64.0,41.7,29.80,NNE,12,6.7,6.7,44,0.00,,---,0.04,VWS V14.01,2013-06-24 00:43:00,
2013-06-23 17:48:00,63.5,43.5,29.80,NNW,343,2.7,2.7,48,0.20,,---,0.24,VWS V14.01,2013-06-24 00:48:00,
2013-06-23 17:53:00,63.5,43.5,29.80,WNW,285,0.0,0.0,48,0.20,,---,0.24,VWS V14.01,2013-06-24 00:53:00,
2013-06-23 17:58:00,62.8,45.4,29.80,WSW,243,0.0,0.0,53,0.20,,---,0.24,VWS V14.01,2013-06-24 00:58:00,
2013-06-23 18:03:00,62.8,45.4,29.80,SW,220,2.2,3.6,53,0.28,,---,0.31,VWS V14.01,2013-06-24 01:03:00,
2013-06-23 18:08:00,62.8,50.0,29.80,SW,220,0.0,0.0,63,0.28,,---,0.31,VWS V14.01,2013-06-24 01:08:00,
2013-06-23 18:13:00,62.8,50.4,29.80,SW,220,0.0,0.0,64,0.28,,---,0.31,VWS V14.01,2013-06-24 01:13:00,
2013-06-23 18:18:00,63.1,51.6,29.80,NNW,336,0.0,0.0,66,0.28,,---,0.31,VWS V14.01,2013-06-24 01:18:00,
2013-06-23 18:23:00,64.4,52.8,29.80,NNW,336,0.0,0.0,66,0.28,,---,0.31,VWS V14.01,2013-06-24 01:23:00,
2013-06-23 18:28:00,64.4,52.8,29.80,West,262,0.0,0.0,66,0.28,,---,0.31,VWS V14.01,2013-06-24 01:28:00,
2013-06-23 18:33:00,64.4,52.4,29.80,West,277,0.0,0.0,65,0.28,,---,0.31,VWS V14.01,2013-06-24 01:33:00,
2013-06-23 18:38:00,64.4,52.4,29.80,WSW,241,0.0,0.0,65,0.28,,---,0.31,VWS V14.01,2013-06-24 01:38:00,
2013-06-23 18:43:00,64.4,52.4,29.80,WSW,253,3.1,3.1,65,0.28,,---,0.31,VWS V14.01,2013-06-24 01:43:00,
2013-06-23 18:48:00,64.4,52.4,29.80,WSW,242,2.7,2.7,65,0.08,,---,0.31,VWS V14.01,2013-06-24 01:48:00,
2013-06-23 18:53:00,63.5,51.5,29.80,SW,231,0.0,0.0,65,0.08,,---,0.31,VWS V14.01,2013-06-24 01:53:00,
2013-06-23 18:58:00,63.1,51.6,29.80,SW,232,0.0,0.0,66,0.08,,---,0.31,VWS V14.01,2013-06-24 01:58:00,
2013-06-23 19:03:00,63.1,52.0,29.80,SW,232,0.0,0.0,67,0.00,,---,0.31,VWS V14.01,2013-06-24 02:03:00,
2013-06-23 19:08:00,62.6,51.5,29.80,SW,232,0.0,0.0,67,0.00,,---,0.31,VWS V14.01,2013-06-24 02:08:00,
2013-06-23 19:13:00,62.6,51.5,29.80,SW,229,0.0,0.0,67,0.00,,---,0.31,VWS V14.01,2013-06-24 02:13:00,
2013-06-23 19:18:00,62.8,52.1,29.80,SW,229,0.0,0.0,68,0.00,,---,0.31,VWS V14.01,2013-06-24 02:18:00,
2013-06-23 19:23:00,62.8,52.1,29.80,SW,229,0.0,0.0,68,0.00,,---,0.31,VWS V14.01,2013-06-24 02:23:00,
2013-06-23 19:28:00,62.8,52.1,29.80,SW,229,0.0,0.0,68,0.04,,---,0.35,VWS V14.01,2013-06-24 02:28:00,
2013-06-23 19:33:00,63.0,52.2,29.80,SW,229,0.0,0.0,68,0.04,,---,0.35,VWS V14.01,2013-06-24 02:33:00,
2013-06-23 19:38:00,63.0,52.2,29.80,SW,229,0.0,0.0,68,0.04,,---,0.35,VWS V14.01,2013-06-24 02:38:00,
2013-06-23 19:43:00,62.8,51.7,29.80,SW,229,0.0,0.0,67,0.04,,---,0.35,VWS V14.01,2013-06-24 02:43:00,
2013-06-23 19:48:00,62.8,51.7,29.80,West,273,0.0,0.0,67,0.04,,---,0.35,VWS V14.01,2013-06-24 02:48:00,
2013-06-23 19:53:00,62.4,52.1,29.80,SSW,202,0.0,0.0,69,0.04,,---,0.35,VWS V14.01,2013-06-24 02:53:00,
2013-06-23 19:58:00,62.4,52.1,29.80,SSW,202,0.0,0.0,69,0.04,,---,0.35,VWS V14.01,2013-06-24 02:58:00,
2013-06-23 20:03:00,62.2,52.3,29.80,SSW,202,0.0,0.0,70,0.04,,---,0.35,VWS V14.01,2013-06-24 03:03:00,
2013-06-23 20:08:00,62.1,52.2,29.80,SSW,202,0.0,0.0,70,0.04,,---,0.35,VWS V14.01,2013-06-24 03:08:00,
2013-06-23 20:13:00,62.1,52.2,29.80,SSW,200,4.0,4.0,70,0.04,,---,0.35,VWS V14.01,2013-06-24 03:13:00,
2013-06-23 20:18:00,61.7,52.6,29.80,SSW,205,3.1,3.6,72,0.04,,---,0.35,VWS V14.01,2013-06-24 03:18:00,
2013-06-23 20:23:00,61.7,52.6,29.80,SSW,208,2.7,2.7,72,0.04,,---,0.35,VWS V14.01,2013-06-24 03:23:00,
2013-06-23 20:28:00,61.9,53.1,29.80,SSW,203,2.7,2.7,73,0.00,,---,0.35,VWS V14.01,2013-06-24 03:28:00,
2013-06-23 20:33:00,61.7,53.0,29.80,SSW,203,2.7,2.7,73,0.00,,---,0.35,VWS V14.01,2013-06-24 03:33:00,
2013-06-23 20:38:00,61.7,53.0,29.80,South,187,3.6,3.6,73,0.00,,---,0.35,VWS V14.01,2013-06-24 03:38:00,
2013-06-23 20:43:00,61.5,53.2,29.80,SSW,206,2.7,2.7,74,0.00,,---,0.35,VWS V14.01,2013-06-24 03:43:00,
2013-06-23 20:48:00,61.3,53.0,29.80,SSW,202,2.7,2.7,74,0.00,,---,0.35,VWS V14.01,2013-06-24 03:48:00,
2013-06-23 20:53:00,61.3,53.0,29.80,SSW,200,3.6,3.6,74,0.00,,---,0.35,VWS V14.01,2013-06-24 03:53:00,
2013-06-23 20:58:00,61.2,52.8,29.80,SSW,204,2.7,2.7,74,0.00,,---,0.35,VWS V14.01,2013-06-24 03:58:00,
2013-06-23 21:01:00,61.2,52.8,29.80,South,190,0.0,0.0,74,0.00,,---,0.35,VWS V14.01,2013-06-24 04:01:00,
2013-06-23 21:06:00,61.2,52.8,29.80,SSW,201,3.1,3.1,74,0.00,,---,0.35,VWS V14.01,2013-06-24 04:06:00,
2013-06-23 21:11:00,61.0,53.0,29.80,SW,219,2.2,3.6,75,0.00,,---,0.35,VWS V14.01,2013-06-24 04:11:00,
2013-06-23 21:16:00,61.0,53.0,29.80,SW,233,0.0,0.0,75,0.00,,---,0.35,VWS V14.01,2013-06-24 04:16:00,
2013-06-23 21:21:00,61.0,53.0,29.80,SSW,203,0.0,0.0,75,0.00,,---,0.35,VWS V14.01,2013-06-24 04:21:00,
2013-06-23 21:26:00,60.8,52.8,29.80,SSW,199,0.0,0.0,75,0.00,,---,0.35,VWS V14.01,2013-06-24 04:26:00,
2013-06-23 21:31:00,60.8,52.8,29.80,SSW,200,0.0,0.0,75,0.00,,---,0.35,VWS V14.01,2013-06-24 04:31:00,
2013-06-23 21:36:00,60.6,53.0,29.80,South,188,0.0,0.0,76,0.00,,---,0.35,VWS V14.01,2013-06-24 04:36:00,
2013-06-23 21:41:00,60.6,53.0,29.80,South,190,3.6,3.6,76,0.00,,---,0.35,VWS V14.01,2013-06-24 04:41:00,
2013-06-23 21:46:00,60.6,53.0,29.80,SW,217,3.1,3.1,76,0.00,,---,0.35,VWS V14.01,2013-06-24 04:46:00,
2013-06-23 21:51:00,60.4,52.8,29.80,SW,221,0.0,0.0,76,0.00,,---,0.35,VWS V14.01,2013-06-24 04:51:00,
2013-06-23 21:56:00,60.4,52.8,29.80,SW,220,0.0,0.0,76,0.00,,---,0.35,VWS V14.01,2013-06-24 04:56:00,
2013-06-23 22:01:00,60.4,52.8,29.80,SW,221,0.0,0.0,76,0.00,,---,0.35,VWS V14.01,2013-06-24 05:01:00,
2013-06-23 22:06:00,60.4,52.8,29.80,SW,220,0.0,0.0,76,0.00,,---,0.35,VWS V14.01,2013-06-24 05:06:00,
2013-06-23 22:11:00,60.4,52.8,29.80,SSW,208,0.0,0.0,76,0.00,,---,0.35,VWS V14.01,2013-06-24 05:11:00,
2013-06-23 22:16:00,60.4,52.8,29.80,SSW,208,0.0,0.0,76,0.00,,---,0.35,VWS V14.01,2013-06-24 05:16:00,
2013-06-23 22:21:00,60.4,52.8,29.80,South,181,3.1,3.1,76,0.00,,---,0.35,VWS V14.01,2013-06-24 05:21:00,
2013-06-23 22:26:00,60.4,52.8,29.80,SSW,200,4.0,4.0,76,0.00,,---,0.35,VWS V14.01,2013-06-24 05:26:00,
2013-06-23 22:31:00,60.4,52.8,29.80,SSW,192,3.6,3.6,76,0.00,,---,0.35,VWS V14.01,2013-06-24 05:31:00,
2013-06-23 22:37:00,60.4,52.8,29.80,SSW,205,2.7,3.6,76,0.00,,---,0.35,VWS V14.01,2013-06-24 05:37:00,
2013-06-23 22:42:00,60.6,53.0,29.80,SSW,205,0.0,0.0,76,0.00,,---,0.35,VWS V14.01,2013-06-24 05:42:00,
2013-06-23 22:47:00,60.6,53.0,29.80,SSW,205,0.0,0.0,76,0.00,,---,0.35,VWS V14.01,2013-06-24 05:47:00,
2013-06-23 22:52:00,60.6,53.0,29.80,SSW,206,2.2,2.2,76,0.00,,---,0.35,VWS V14.01,2013-06-24 05:52:00,
2013-06-23 22:57:00,60.6,53.0,29.80,SW,226,0.0,0.0,76,0.00,,---,0.35,VWS V14.01,2013-06-24 05:57:00,
2013-06-23 23:02:00,60.6,53.0,29.80,SW,226,0.0,0.0,76,0.00,,---,0.35,VWS V14.01,2013-06-24 06:02:00,
2013-06-23 23:07:00,60.8,53.2,29.80,SSW,205,0.0,0.0,76,0.00,,---,0.35,VWS V14.01,2013-06-24 06:07:00,
2013-06-23 23:12:00,60.8,53.2,29.80,SW,218,4.0,5.4,76,0.00,,---,0.35,VWS V14.01,2013-06-24 06:12:00,
2013-06-23 23:17:00,61.0,53.4,29.80,SSW,203,5.8,5.8,76,0.00,,---,0.35,VWS V14.01,2013-06-24 06:17:00,
2013-06-23 23:22:00,61.0,53.4,29.80,SW,225,4.9,4.9,76,0.00,,---,0.35,VWS V14.01,2013-06-24 06:22:00,
2013-06-23 23:27:00,61.0,53.4,29.80,SSW,210,5.4,5.4,76,0.00,,---,0.35,VWS V14.01,2013-06-24 06:27:00,
2013-06-23 23:32:00,61.0,53.4,29.80,WSW,245,8.3,8.3,76,0.00,,---,0.35,VWS V14.01,2013-06-24 06:32:00,
2013-06-23 23:37:00,61.0,53.4,29.80,SW,233,6.3,6.3,76,0.00,,---,0.35,VWS V14.01,2013-06-24 06:37:00,
2013-06-23 23:42:00,61.0,52.7,29.80,West,272,10.5,10.5,74,0.00,,---,0.35,VWS V14.01,2013-06-24 06:42:00,
2013-06-23 23:47:00,60.8,52.5,29.80,WNW,287,6.3,6.3,74,0.00,,---,0.35,VWS V14.01,2013-06-24 06:47:00,
2013-06-23 23:53:00,60.6,51.9,29.80,West,276,8.7,8.7,73,0.00,,---,0.35,VWS V14.01,2013-06-24 06:53:00,
2013-06-23 23:58:00,60.6,51.9,29.80,WNW,297,15.4,15.4,73,0.00,,---,0.35,VWS V14.01,2013-06-24 06:58:00,